Torna al catalogo

STARLINK-33853

AttivoComunicazioniVLEO
NORAD 63684·PAYLOAD·🇺🇸 United States

Lanciato Apr 28, 2025 da Cape Canaveral Space Force Station

Loading…

Prossimi Passaggi (prossime 24 ore)

TLE

AggiornatoSource: CelesTrak SupGP

Epoca: Sep 14, 2026, 15:05 UTC

1 63684C 25085W   26257.62895833 -.00052489  00000+0 -19007-2 0  2578
2 63684  43.0041  43.5583 0001383 269.3135 302.4281 15.27613005    14

Traccia STARLINK-33853 in tempo reale con AllMySat

Download on the App Store